When you browse on this site, cookies collect data to enhance your experience and personalize the content and advertising you see.
Visit our Privacy Policy to learn more. By continuing to use the site, you agree to this use of cookies and data.
  • In Romania
  • List of Countries
  • For 7 days
  • Water Temperature
  • Satellite Maps
  • Weather Map
  • Weather Widgets
  • user-avatar
    Login

    Hourly Weather Santa Fe

    Today, 23 February, Saturday

    Time Temperature Precipitation Wind Pressure Humidity
    00:00 -8°C° 0.2 mm 5 mps 574 mmHg 88%
    01:00 -10°C° 0.2 mm 5 mps 574 mmHg 87%
    02:00 -10°C° 0.2 mm 6 mps 573 mmHg 87%
    03:00 -10°C° 0.2 mm 6 mps 574 mmHg 85%
    04:00 -10°C° 0.2 mm 6 mps 574 mmHg 83%
    05:00 -9°C° 0.2 mm 6 mps 575 mmHg 81%
    06:00 -9°C° 0.1 mm 6 mps 576 mmHg 78%
    07:00 -9°C° 0.1 mm 7 mps 577 mmHg 75%
    08:00 -9°C° 0.1 mm 7 mps 578 mmHg 72%
    09:00 -8°C° 0 mm 7 mps 579 mmHg 67%
    10:00 -7°C° 0 mm 7 mps 579 mmHg 61%
    11:00 -6°C° 0 mm 7 mps 580 mmHg 56%
    12:00 -4°C° 0 mm 7 mps 581 mmHg 53%
    13:00 -3°C° 0 mm 7 mps 581 mmHg 50%
    14:00 -2°C° 0 mm 7 mps 582 mmHg 47%
    15:00 -3°C° 0 mm 6 mps 582 mmHg 48%
    16:00 -2°C° 0 mm 5 mps 582 mmHg 49%
    17:00 -4°C° 0 mm 5 mps 583 mmHg 50%
    18:00 -4°C° 0 mm 4 mps 583 mmHg 54%
    19:00 -7°C° 0 mm 4 mps 583 mmHg 58%
    20:00 -7°C° 0 mm 3 mps 584 mmHg 62%
    21:00 -8°C° 0 mm 4 mps 584 mmHg 59%
    22:00 -8°C° 0 mm 4 mps 585 mmHg 55%
    23:00 -8°C° 0 mm 4 mps 586 mmHg 52%

    Tomorrow, 24 February, Sunday

    Time Temperature Precipitation Wind Pressure Humidity
    00:00 -8°C° 0 mm 4 mps 586 mmHg 51%
    01:00 -9°C° 0 mm 4 mps 586 mmHg 51%
    02:00 -8°C° 0 mm 3 mps 586 mmHg 50%
    03:00 -8°C° 0 mm 3 mps 586 mmHg 50%
    04:00 -8°C° 0 mm 3 mps 586 mmHg 49%
    05:00 -7°C° 0 mm 2 mps 586 mmHg 49%
    06:00 -6°C° 0 mm 2 mps 586 mmHg 47%
    07:00 -5°C° 0 mm 2 mps 587 mmHg 45%
    08:00 -4°C° 0 mm 2 mps 587 mmHg 43%
    09:00 -2°C° 0 mm 2 mps 587 mmHg 39%
    10:00 +1°C° 0 mm 2 mps 588 mmHg 34%
    11:00 +3°C° 0 mm 2 mps 588 mmHg 30%
    12:00 +2°C° 0 mm 3 mps 587 mmHg 30%
    13:00 +3°C° 0 mm 3 mps 586 mmHg 31%
    14:00 +4°C° 0 mm 3 mps 586 mmHg 31%
    15:00 +3°C° 0 mm 3 mps 585 mmHg 35%
    16:00 +2°C° 0 mm 3 mps 585 mmHg 39%
    17:00 +2°C° 0 mm 2 mps 584 mmHg 43%
    18:00 +1°C° 0 mm 2 mps 584 mmHg 43%
    19:00 -2°C° 0 mm 2 mps 584 mmHg 44%
    20:00 -1°C° 0 mm 1 mps 583 mmHg 44%
    21:00 -2°C° 0 mm 1 mps 584 mmHg 43%
    22:00 -2°C° 0 mm 1 mps 584 mmHg 42%
    23:00 -2°C° 0 mm 1 mps 584 mmHg 41%

    Day after tomorrow, 25 February, Monday

    Time Temperature Precipitation Wind Pressure Humidity
    00:00 -2°C° 0 mm 1 mps 584 mmHg 42%
    01:00 -2°C° 0 mm 1 mps 584 mmHg 43%
    02:00 -2°C° 0 mm 1 mps 584 mmHg 44%
    03:00 -4°C° 0 mm 2 mps 584 mmHg 44%
    04:00 -4°C° 0 mm 2 mps 583 mmHg 45%
    05:00 -4°C° 0 mm 2 mps 583 mmHg 46%
    06:00 -3°C° 0 mm 2 mps 584 mmHg 45%
    07:00 -2°C° 0 mm 2 mps 584 mmHg 43%
    08:00 +1°C° 0 mm 2 mps 585 mmHg 41%
    09:00 +2°C° 0 mm 2 mps 585 mmHg 39%
    10:00 +4°C° 0 mm 2 mps 585 mmHg 36%
    11:00 +4°C° 0 mm 3 mps 585 mmHg 33%
    12:00 +5°C° 0 mm 3 mps 585 mmHg 33%
    13:00 +5°C° 0 mm 4 mps 584 mmHg 34%
    14:00 +6°C° 0 mm 5 mps 584 mmHg 35%
    15:00 +5°C° 0 mm 4 mps 584 mmHg 37%
    16:00 +5°C° 0 mm 4 mps 584 mmHg 39%
    17:00 +4°C° 0 mm 4 mps 583 mmHg 41%
    18:00 +2°C° 0 mm 3 mps 583 mmHg 44%
    19:00 +1°C° 0 mm 3 mps 583 mmHg 46%
    20:00 -1°C° 0 mm 2 mps 583 mmHg 49%
    21:00 -1°C° 0 mm 2 mps 583 mmHg 49%
    22:00 -1°C° 0 mm 2 mps 583 mmHg 48%
    23:00 -1°C° 0 mm 2 mps 583 mmHg 48%

    26 February, Tuesday

    Time Temperature Precipitation Wind Pressure Humidity
    00:00 -2°C° 0 mm 2 mps 583 mmHg 49%
    01:00 -2°C° 0 mm 2 mps 583 mmHg 50%
    02:00 -2°C° 0 mm 2 mps 583 mmHg 50%
    03:00 -2°C° 0 mm 2 mps 583 mmHg 51%
    04:00 -2°C° 0 mm 2 mps 583 mmHg 51%
    05:00 -2°C° 0 mm 3 mps 583 mmHg 51%
    06:00 -1°C° 0 mm 3 mps 584 mmHg 50%
    07:00 0°C° 0 mm 3 mps 584 mmHg 48%
    08:00 +1°C° 0 mm 3 mps 585 mmHg 47%
    09:00 +3°C° 0 mm 3 mps 585 mmHg 45%
    10:00 +4°C° 0 mm 4 mps 586 mmHg 43%
    11:00 +6°C° 0 mm 4 mps 586 mmHg 41%
    12:00 +7°C° 0 mm 5 mps 586 mmHg 41%
    13:00 +7°C° 0 mm 5 mps 586 mmHg 41%
    14:00 +8°C° 0 mm 6 mps 585 mmHg 42%
    15:00 +7°C° 0 mm 6 mps 585 mmHg 43%
    16:00 +7°C° 0 mm 6 mps 585 mmHg 44%
    17:00 +6°C° 0 mm 5 mps 585 mmHg 45%
    18:00 +5°C° 0 mm 5 mps 585 mmHg 49%
    19:00 +3°C° 0 mm 4 mps 584 mmHg 52%
    20:00 +1°C° 0 mm 4 mps 584 mmHg 56%
    21:00 0°C° 0 mm 4 mps 584 mmHg 56%
    22:00 0°C° 0 mm 4 mps 584 mmHg 57%
    23:00 -1°C° 0 mm 5 mps 584 mmHg 58%

    27 February, Wednesday

    Time Temperature Precipitation Wind Pressure Humidity
    00:00 -1°C° 0 mm 4 mps 584 mmHg 58%
    01:00 -1°C° 0 mm 4 mps 584 mmHg 58%
    02:00 -1°C° 0 mm 4 mps 584 mmHg 59%
    03:00 -2°C° 0 mm 4 mps 584 mmHg 59%
    04:00 -2°C° 0 mm 4 mps 585 mmHg 59%
    05:00 -2°C° 0 mm 4 mps 585 mmHg 59%
    06:00 0°C° 0 mm 3 mps 585 mmHg 57%
    07:00 +1°C° 0 mm 3 mps 586 mmHg 55%
    08:00 +2°C° 0 mm 3 mps 586 mmHg 53%
    09:00 +4°C° 0 mm 3 mps 587 mmHg 49%
    10:00 +7°C° 0 mm 3 mps 587 mmHg 45%
    11:00 +8°C° 0 mm 2 mps 588 mmHg 41%
    12:00 +9°C° 0 mm 3 mps 588 mmHg 41%
    13:00 +10°C° 0 mm 3 mps 588 mmHg 40%
    14:00 +10°C° 0 mm 3 mps 587 mmHg 40%
    15:00 +10°C° 0 mm 3 mps 587 mmHg 41%
    16:00 +9°C° 0 mm 3 mps 587 mmHg 43%
    17:00 +7°C° 0 mm 4 mps 586 mmHg 44%
    18:00 +7°C° 0 mm 3 mps 586 mmHg 48%
    19:00 +4°C° 0 mm 3 mps 586 mmHg 51%
    20:00 +4°C° 0 mm 2 mps 585 mmHg 55%
    21:00 +3°C° 0 mm 2 mps 585 mmHg 55%
    22:00 +3°C° 0 mm 2 mps 585 mmHg 55%
    23:00 +2°C° 0 mm 2 mps 584 mmHg 56%

    28 February, Thursday

    Time Temperature Precipitation Wind Pressure Humidity
    00:00 +1°C° 0 mm 3 mps 584 mmHg 57%
    01:00 +1°C° 0 mm 3 mps 584 mmHg 58%
    02:00 +1°C° 0 mm 3 mps 583 mmHg 59%
    03:00 0°C° 0 mm 3 mps 583 mmHg 60%
    04:00 0°C° 0 mm 3 mps 583 mmHg 60%
    05:00 0°C° 0 mm 3 mps 583 mmHg 61%
    06:00 +1°C° 0 mm 3 mps 583 mmHg 59%
    07:00 +2°C° 0 mm 3 mps 584 mmHg 57%
    08:00 +3°C° 0 mm 3 mps 585 mmHg 55%
    09:00 +4°C° 0 mm 3 mps 585 mmHg 51%
    10:00 +7°C° 0 mm 3 mps 585 mmHg 47%
    11:00 +8°C° 0 mm 4 mps 586 mmHg 43%
    12:00 +8°C° 0 mm 5 mps 585 mmHg 42%
    13:00 +9°C° 0 mm 6 mps 585 mmHg 41%
    14:00 +10°C° 0 mm 8 mps 585 mmHg 40%
    15:00 +9°C° 0 mm 8 mps 584 mmHg 41%
    16:00 +9°C° 0 mm 7 mps 584 mmHg 42%
    17:00 +8°C° 0 mm 7 mps 583 mmHg 43%
    18:00 +7°C° 0 mm 6 mps 583 mmHg 47%
    19:00 +5°C° 0 mm 5 mps 582 mmHg 51%
    20:00 +4°C° 0 mm 4 mps 582 mmHg 56%
    21:00 +4°C° 0 mm 4 mps 581 mmHg 58%
    22:00 +3°C° 0 mm 4 mps 581 mmHg 60%
    23:00 +3°C° 0 mm 3 mps 580 mmHg 63%
    Show more